Location: Caltech
(34.1382°N, 118.1253°W)
Time: 05:14:53
(UTC-07:00)

Cosmos 2219 Rocket - Visible Passes

Search period start: 25 September 2016 00:00
Search period end: 05 October 2016 00:00
Orbit: 827 x 848 km, 71.0° (Epoch: 25 September)

Date Brightness Start Highest point End Pass type
(mag) Time Alt. Az. Time Alt. Az. Time Alt. Az.
25 Sep 4.5 03:24:41 10° NNE 03:28:47 20° ENE 03:32:52 10° ESE visible
25 Sep 2.3 05:07:31 10° NNW 05:13:01 51° WSW 05:18:28 10° S visible
25 Sep 5.1 19:57:06 10° W 20:00:01 14° NW 20:02:56 10° NNW visible
26 Sep 4.6 03:08:31 10° NNE 03:12:24 19° ENE 03:16:17 10° E visible
26 Sep 2.2 04:51:09 10° NNW 04:56:41 55° WSW 05:02:12 10° S visible
26 Sep 5.0 19:40:23 10° W 19:43:37 15° NW 19:46:52 10° NNW visible
27 Sep5.303:02:32ESE03:02:32ESE02:50:57Nvisible
27 Sep 3.9 04:44:31 18° S 04:44:31 18° S 04:45:56 10° S visible
27 Sep 4.9 19:23:42 10° W 19:27:13 17° NW 19:30:45 10° NNW visible
28 Sep 4.9 19:07:04 10° W 19:10:49 18° WNW 19:14:36 10° NNW visible
